[[{"header":{"parameterUnit":"m.s-1","parameterCategory":1,"la1":30.2991,"la2":30.254,"lo1":-89.0895,"lo2":-89.0444,"dy":0.0017,"dx":0.0017,"nx":28,"ny":28,"refTime":"2023-08-20T03:00:00:Z","depth":0,"parameterNumber":2,"parameterNumberName":"U-component_of_WINDS"},"data":[0,0,0,0,0,0,0,0,0,0,0,0,0,0,0,0,0,0,0,0,0,0,0,0,0,0,0,0,0,0,0,0,0,0,0,0,0,0,0,0,0,0,0,0,0,0,0,0,0,0,0,0,0,0,0,0,0,0,0.4866,0.4868,0,0.502,0.5022,0.5023,0.5092,0.5091,0.5091,0.5091,0.5246,0.525,0.5255,0,0,0,0,0,0,0,0,0,0,0,0,0,0.4628,0.4632,0.4866,0.4868,0.487,0.502,0.5022,0.5024,0.5092,0.5091,0.5091,0.5091,0.5245,0.525,0.5255,0,0,0,0,0,0,0,0,0,0,0,0,0,0.4752,0.4634,0.4865,0.4922,0.4928,0.5019,0.5022,0.5024,0.5092,0.5091,0.5091,0.5091,0.5243,0.5249,0.5256,0.5302,0,0,0.5276,0.5278,0,0,0,0,0,0,0,0,0.4744,0.476,0.4911,0.4918,0.4925,0.5036,0.4995,0.5117,0.5092,0.503,0.5091,0.5091,0.5176,0.5188,0.5218,0.5309,0.5315,0.5276,0.528,0.5283,0.5285,0,0,0,0,0,0,0,0.4736,0.4754,0.4927,0.4914,0.4922,0.4938,0.4956,0.5018,0.5103,0.5035,0.504,0.5058,0.518,0.5211,0.5222,0.5318,0.5276,0.5282,0.5286,0.5288,0.5455,0.5455,0,0,0,0,0,0,0.4718,0.4746,0.4922,0.4931,0.4833,0.4943,0.4962,0.5001,0.5102,0.5117,0.5058,0.506,0.52,0.5214,0.5228,0.5289,0.5283,0.5289,0.5293,0.5454,0.5455,0.5455,0,0,0,0,0,0,0.4713,0.4733,0.4916,0.484,0.4865,0.4947,0.499,0.5004,0.5036,0.512,0.5135,0.5074,0.5201,0.5219,0.5283,0.5295,0.5292,0.5298,0.5453,0.5454,0.5455,0.541,0,0,0,0,0,0,0.4706,0.4731,0.475,0.484,0.4869,0.4969,0.4991,0.5007,0.5047,0.5052,0.5139,0.5153,0.5202,0.5273,0.5289,0.5304,0.5303,0.5453,0.5454,0.5455,0.5411,0.5409,0.5408,0,0,0,0,0,0.4697,0.473,0.4751,0.4771,0.4894,0.4969,0.4985,0.5042,0.5047,0.5067,0.5121,0.515,0.5291,0.5279,0.5298,0.5315,0.5452,0.5453,0.5455,0.5412,0.541,0.5408,0,0,0,0,0,0,0.4638,0.4743,0.4767,0.483,0.4891,0.4981,0.5007,0.5038,0.5097,0.5099,0.5165,0.5184,0.5243,0.5285,0.527,0.5364,0.5374,0.5379,0.5335,0.5334,0.5332,0.5321,0.5308,0,0,0,0,0,0.4633,0.4686,0.4775,0.4822,0.4851,0.4924,0.4959,0.4997,0.5061,0.5087,0.5146,0.5206,0.5265,0.5301,0.5359,0.5417,0.5437,0.5438,0.5436,0.5435,0.5438,0.5473,0.5474,0.5459,0.5459,0.5459,0,0,0.4622,0.4686,0.4715,0.4812,0.4863,0.4916,0.4945,0.4999,0.504,0.5095,0.516,0.5205,0.5277,0.5339,0.5369,0.5376,0.5447,0.5436,0.5434,0.5439,0.5474,0.5475,0.5477,0.546,0.546,0.546,0,0,0.4629,0.4683,0.4729,0.478,0.4857,0.4905,0.4916,0.5002,0.5034,0.51,0.5143,0.5191,0.529,0.534,0.5378,0.5404,0.5434,0.5421,0.5413,0.5446,0.5447,0.5449,0.5459,0.5461,0.5424,0.5424,0.5424,0,0.4605,0.4688,0.4748,0.4801,0.4843,0.4896,0.4943,0.4989,0.508,0.5107,0.5114,0.5239,0.5292,0.5366,0.5372,0.5401,0.5416,0.5412,0.5442,0.5444,0.5447,0.5457,0.546,0.5422,0.5423,0.5423,0.5423,0,0.4656,0.4712,0.474,0.4829,0.4873,0.4922,0.4989,0.5026,0.506,0.5107,0.5174,0.5239,0.5311,0.5331,0.5364,0.541,0.5412,0.543,0.5441,0.5445,0.5456,0.546,0.5419,0.542,0.5421,0.5421,0,0,0.4631,0.4752,0.4761,0.4802,0.4892,0.4936,0.4988,0.506,0.5091,0.5152,0.5197,0.5279,0.5296,0.5339,0.5378,0.5407,0.5424,0.5421,0.5424,0.542,0.5479,0.5466,0.547,0.5444,0.5445,0.5446,0.5473,0,0.4651,0.4747,0.4802,0.4876,0.4929,0.498,0.5025,0.5084,0.5129,0.518,0.523,0.5287,0.5305,0.5332,0.5362,0.5415,0.5437,0.5414,0.5486,0.5488,0.5468,0.5475,0.5462,0.5484,0.5478,0.5479,0.5479,0,0.4687,0.4749,0.4828,0.4912,0.4936,0.4976,0.5046,0.5094,0.5162,0.5193,0.5241,0.5281,0.5337,0.5343,0.5421,0.5404,0.5437,0.5467,0.547,0.5479,0.5484,0.5485,0.5493,0.5497,0.5486,0.5486,0.5485,0,0.4662,0.4764,0.4825,0.4859,0.4958,0.4984,0.5027,0.5095,0.5134,0.5195,0.5222,0.5287,0.5324,0.5374,0.543,0.5429,0.5502,0.5513,0.5529,0.5528,0.5543,0.5542,0.5557,0.5563,0.5563,0.5563,0.5562,0,0.4679,0.4725,0.4815,0.4852,0.4906,0.4968,0.5019,0.5065,0.5125,0.5172,0.522,0.5262,0.5334,0.5385,0.5429,0.5487,0.5503,0.5529,0.554,0.5525,0.5522,0.5548,0.5548,0.5564,0.5563,0.5563,0.5563,0,0.466,0.4722,0.4792,0.488,0.4904,0.4939,0.5014,0.5052,0.51,0.5158,0.5175,0.525,0.5313,0.5373,0.5457,0.5487,0.5545,0.5559,0.5522,0.5529,0.5542,0.554,0.5575,0.5583,0.5582,0.5582,0.5582,0,0.4667,0.4705,0.4797,0.4833,0.4874,0.493,0.4971,0.5034,0.5075,0.5155,0.5183,0.525,0.5306,0.5404,0.5465,0.553,0.5547,0.5554,0.5557,0.554,0.5548,0.5545,0.5549,0.5553,0.5553,0.5552,0.5552,0,0.4674,0.4703,0.4761,0.483,0.4878,0.4934,0.4993,0.5018,0.5092,0.5135,0.5201,0.5245,0.5331,0.5396,0.5468,0.5511,0.5544,0.5551,0.5558,0.5544,0.5521,0.5534,0.5519,0.555,0.555,0.555,0.5551,0.5551,0.4669,0.4705,0.4776,0.4839,0.4889,0.4943,0.4983,0.5036,0.5092,0.5168,0.5201,0.5267,0.5334,0.5434,0.5476,0.5529,0.5537,0.5547,0.555,0.5552,0.5549,0.5512,0.5542,0.5542,0.5542,0.5542,0.5542,0,0.4679,0.4727,0.4785,0.4865,0.4915,0.4942,0.5008,0.5047,0.5105,0.5165,0.5221,0.5296,0.5359,0.5426,0.5493,0.5522,0.5539,0.5538,0.5536,0.5546,0.5537,0.5525,0.5523,0.5523,0.5523,0.5523,0.5523,0.5523,0.469,0.4752,0.4789,0.4876,0.4924,0.499,0.5026,0.5075,0.5124,0.5206,0.526,0.5303,0.5365,0.5438,0.5497,0.5515,0.5538,0.5532,0.5554,0.5545,0.5546,0.5548,0.5536,0.5537,0.5537,0.5559,0.5559,0.5559]},{"header":{"parameterUnit":"m.s-1","parameterCategory":1,"la1":30.2991,"la2":30.254,"lo1":-89.0895,"lo2":-89.0444,"dy":0.0017,"dx":0.0017,"nx":28,"ny":28,"refTime":"2023-08-20T03:00:00:Z","depth":0,"parameterNumber":3,"parameterNumberName":"V-component_of_WINDS"},"data":[0,0,0,0,0,0,0,0,0,0,0,0,0,0,0,0,0,0,0,0,0,0,0,0,0,0,0,0,0,0,0,0,0,0,0,0,0,0,0,0,0,0,0,0,0,0,0,0,0,0,0,0,0,0,0,0,0,0,4.6971,4.6969,0,4.6751,4.6749,4.6746,4.6577,4.6575,4.6573,4.6572,4.6339,4.6335,4.633,0,0,0,0,0,0,0,0,0,0,0,0,0,4.7241,4.7237,4.6972,4.6969,4.6966,4.6752,4.6749,4.6745,4.6577,4.6575,4.6573,4.6571,4.6341,4.6335,4.633,0,0,0,0,0,0,0,0,0,0,0,0,0,4.7082,4.7235,4.6972,4.6856,4.6844,4.6752,4.6748,4.6745,4.6577,4.6575,4.6572,4.657,4.6343,4.6336,4.6329,4.6333,0,0,4.6307,4.6304,0,0,0,0,0,0,0,0,4.7092,4.7073,4.6876,4.6864,4.685,4.6689,4.6758,4.6606,4.6578,4.6678,4.6572,4.6569,4.6457,4.6441,4.6404,4.6322,4.6312,4.6307,4.6302,4.6299,4.6297,0,0,0,0,0,0,0,4.7103,4.7081,4.6884,4.6873,4.6857,4.6813,4.6788,4.6728,4.6583,4.6669,4.6656,4.6633,4.6449,4.6411,4.6397,4.6308,4.6307,4.6301,4.6296,4.6293,4.6219,4.6221,0,0,0,0,0,0,4.7133,4.7091,4.6891,4.6877,4.6968,4.6811,4.6782,4.6743,4.6584,4.6557,4.6635,4.6626,4.6425,4.6406,4.6389,4.6384,4.6299,4.6293,4.6289,4.6217,4.622,4.6222,0,0,0,0,0,0,4.7139,4.7116,4.69,4.6981,4.695,4.6808,4.6765,4.674,4.6702,4.6558,4.6531,4.6624,4.6422,4.6399,4.6349,4.6373,4.629,4.6283,4.6214,4.6218,4.6221,4.6374,0,0,0,0,0,0,4.7148,4.712,4.7121,4.6982,4.6947,4.6866,4.6767,4.6737,4.6691,4.6676,4.654,4.6515,4.6418,4.636,4.6342,4.6362,4.6278,4.6211,4.6216,4.622,4.6366,4.6382,4.6396,0,0,0,0,0,4.7158,4.7171,4.7122,4.7099,4.6945,4.6868,4.6847,4.6738,4.6693,4.6693,4.6601,4.6519,4.6374,4.6357,4.6334,4.6353,4.6209,4.6215,4.622,4.6359,4.6379,4.6395,0,0,0,0,0,0,4.7312,4.715,4.7094,4.7063,4.6981,4.6839,4.6835,4.6762,4.6688,4.6678,4.6543,4.6514,4.6478,4.641,4.6394,4.6349,4.6281,4.6282,4.6395,4.6412,4.6427,4.6444,4.6272,0,0,0,0,0,4.7344,4.7296,4.7156,4.7142,4.7104,4.6978,4.6939,4.6863,4.6771,4.6734,4.6638,4.6551,4.6485,4.6445,4.6376,4.6355,4.6323,4.6357,4.6372,4.6385,4.6387,4.6373,4.6386,4.6239,4.6239,4.6239,0,0,4.7406,4.7312,4.7289,4.7171,4.7098,4.7051,4.6949,4.6902,4.6865,4.6726,4.6674,4.6602,4.6494,4.646,4.644,4.6402,4.6421,4.6392,4.6403,4.6398,4.6379,4.6393,4.6406,4.6242,4.6242,4.6241,0,0,4.7496,4.742,4.7401,4.7332,4.7224,4.714,4.7136,4.7005,4.6952,4.6899,4.6794,4.6747,4.6637,4.6566,4.6516,4.6582,4.6505,4.6563,4.6641,4.6629,4.664,4.665,4.6675,4.6685,4.6566,4.6567,4.6567,0,4.7587,4.7514,4.74,4.7361,4.7312,4.7188,4.7167,4.7103,4.6978,4.6947,4.6907,4.6768,4.6686,4.6634,4.6651,4.6614,4.6605,4.6578,4.6648,4.6657,4.6664,4.6686,4.6696,4.6574,4.6574,4.6573,4.6572,0,4.7631,4.7582,4.7579,4.7465,4.7416,4.7386,4.7267,4.723,4.7159,4.7079,4.7026,4.6925,4.6835,4.6817,4.6745,4.6755,4.6735,4.6674,4.6603,4.6688,4.6706,4.6714,4.6586,4.6583,4.6581,4.6579,0,0,4.7811,4.7637,4.7638,4.7586,4.7459,4.7418,4.7382,4.7297,4.7269,4.7187,4.7154,4.7065,4.7008,4.6951,4.687,4.6859,4.692,4.6798,4.6794,4.6825,4.6926,4.6974,4.6986,4.6868,4.6869,4.687,4.6935,0,4.7882,4.7815,4.7713,4.7678,4.7632,4.7514,4.7483,4.7401,4.7326,4.7274,4.7189,4.7129,4.7058,4.7023,4.7007,4.6917,4.6939,4.691,4.6835,4.6834,4.6867,4.6995,4.7044,4.7111,4.6942,4.6943,4.6944,0,4.7955,4.7884,4.7847,4.7726,4.7702,4.7677,4.7592,4.7544,4.7449,4.7394,4.7333,4.7246,4.7202,4.7139,4.7076,4.7059,4.7022,4.6973,4.6973,4.6962,4.6895,4.6988,4.7129,4.714,4.6954,4.6953,4.6952,0,4.8093,4.7987,4.7951,4.7909,4.7767,4.7752,4.7692,4.7595,4.7551,4.7475,4.7446,4.7366,4.7322,4.7261,4.7155,4.7119,4.7104,4.7031,4.7058,4.7061,4.706,4.7061,4.7198,4.7036,4.7036,4.7035,4.7035,0,4.8183,4.8165,4.8011,4.7989,4.7965,4.7848,4.7826,4.7754,4.767,4.7631,4.7522,4.7488,4.7349,4.7298,4.7214,4.7176,4.7156,4.7111,4.7089,4.7121,4.7127,4.7095,4.7088,4.7038,4.7037,4.7037,4.7036,0,4.8332,4.8228,4.8182,4.8052,4.8019,4.8008,4.7895,4.7869,4.7789,4.7741,4.7723,4.7596,4.753,4.7419,4.732,4.7263,4.7241,4.7203,4.7275,4.7262,4.7295,4.7294,4.7416,4.7426,4.7258,4.726,4.7261,0,4.8397,4.838,4.8251,4.8219,4.8163,4.8112,4.8068,4.7951,4.7909,4.7801,4.7788,4.7715,4.765,4.7551,4.7449,4.7373,4.7333,4.7381,4.7321,4.7354,4.7335,4.7338,4.7336,4.7395,4.7398,4.74,4.7401,0,4.8523,4.8474,4.8415,4.8341,4.8292,4.8226,4.8154,4.8133,4.8,4.7959,4.7892,4.7843,4.7744,4.7672,4.7583,4.7518,4.7438,4.7422,4.7424,4.7457,4.7499,4.7478,4.7314,4.7419,4.7417,4.7416,4.7415,4.7414,4.8632,4.8613,4.852,4.8459,4.8394,4.8331,4.8301,4.8218,4.8161,4.8074,4.8008,4.7947,4.7852,4.7724,4.7665,4.7614,4.7577,4.758,4.7581,4.7584,4.7597,4.7508,4.7597,4.7596,4.7596,4.7595,4.7595,0,4.8754,4.8689,4.8635,4.854,4.8493,4.8424,4.8342,4.8306,4.8255,4.8175,4.8115,4.8039,4.797,4.7864,4.7786,4.7766,4.7728,4.775,4.775,4.7737,4.7633,4.764,4.7783,4.7783,4.7783,4.7783,4.7783,4.7783,4.8812,4.8777,4.8717,4.8649,4.8582,4.8524,4.8483,4.8424,4.836,4.8282,4.8225,4.8157,4.8067,4.7982,4.7916,4.7886,4.7863,4.7897,4.7856,4.7762,4.7744,4.7727,4.7733,4.7893,4.7893,4.7964,4.7964,4.7965]}]]